Location: ????????
(55.3155°N, 39.2900°E)
Time: 01:12:23
(UTC+00:00)

Envisat - Pass Details

Date: 14 April 2024
Orbit: 762 x 764 km, 98.3° (Epoch: 18 May)

Event Time Altitude Azimuth Distance (km) Brightness Sun altitude
Rises 00:59:49 0° 16° (NNE) 3,244 7.1 -11.1°
Reaches altitude 10° 01:02:08 10° 17° (NNE) 2,313 6.3 -10.8°
Maximum altitude 01:07:15 82° 105° (ESE) 780 3.1 -10.2°
Drops below altitude 10° 01:12:19 10° 194° (SSW) 2,296 5.0 -9.6°
Enters shadow 01:13:59 - 195° (SSW) 2,962 5.6 -9.4°
